"Timestamp","TZ","WindDir_Mean (deg)","WindSpd_Mean (km/h)","WindSpd_Min (km/h)","WindSpd_Max (km/h)","Temp_Mean (deg)","RH_Mean (%)","MSLP_Mean (hPa)","Rain_Acc (mm)","Rain_Intensity (mm/h)","Hail_Acc (hits/cm2)","Hail_Intensity (hits/cm2hr)","Solar_Mean (W/m2)"
2021/12/04 00:00:00.015,n,150,2.52,2.16,2.88,23.2,78.3,1015.22,0,0,0,0,0.028687
2021/12/04 00:01:00.000,n,134,1.08,0.72,2.16,23.2,78.2,1015.22,0,0,0,0,0.029564
2021/12/04 00:02:00.000,n,174,0.72,0.36,2.52,23.2,78.3,1015.22,0,0,0,0,0.027809
2021/12/04 00:03:00.000,n,140,3.96,3.96,4.32,23.2,78.3,1015.22,0,0,0,0,0.030441
2021/12/04 00:04:00.000,n,107,2.16,1.8,2.88,23.2,78.3,1015.22,0,0,0,0,0.030441
2021/12/04 00:05:00.005,n,111,3.24,2.52,3.24,23.1,78.4,1015.22,0,0,0,0,0.033035
2021/12/04 00:06:00.002,n,111,1.44,1.08,1.8,23.1,78.4,1015.22,0,0,0,0,0.033035
2021/12/04 00:07:00.002,n,110,1.08,0.72,1.44,23.1,78.4,1015.22,0,0,0,0,0.029564
2021/12/04 00:08:00.000,n,105,1.44,1.08,1.44,23.1,78.5,1015.22,0,0,0,0,0.02697
2021/12/04 00:09:00.012,n,148,1.8,1.8,2.16,23.1,78.9,1015.22,0,0,0,0,0.030441
2021/12/04 00:10:00.000,n,145,1.8,1.8,1.8,23.1,79.2,1015.22,0,0,0,0,0.027809
2021/12/04 00:11:00.000,n,137,1.44,0.36,1.8,23.1,79.3,1015.22,0,0,0,0,0.027809
2021/12/04 00:12:00.003,n,163,2.52,2.16,2.88,23.1,79.3,1015.22,0,0,0,0,0.02697
2021/12/04 00:13:00.000,n,165,2.52,2.16,2.88,23,79.3,1015.12,0,0,0,0,0.027809
2021/12/04 00:14:00.000,n,136,3.24,3.24,3.6,23,79.4,1015.12,0,0,0,0,0.026093
2021/12/04 00:15:00.000,n,137,2.16,1.8,2.16,23,79.5,1015.12,0,0,0,0,0.02346
2021/12/04 00:16:00.007,n,111,1.8,1.8,2.16,23,79.6,1015.02,0,0,0,0,0.028687
2021/12/04 00:17:00.005,n,140,1.08,0.36,1.8,23,79.7,1015.02,0,0,0,0,0.027809
2021/12/04 00:18:00.002,n,89,1.08,0.72,1.08,22.9,79.8,1015.02,0,0,0,0,0.028687
2021/12/04 00:19:00.000,n,84,0.72,0.36,1.08,22.9,79.8,1015.02,0,0,0,0,0.031319
2021/12/04 00:20:00.000,n,79,1.8,1.44,2.16,22.9,79.9,1014.92,0,0,0,0,0.028687
2021/12/04 00:21:00.000,n,232,0.36,0.36,0.72,22.9,80,1014.92,0,0,0,0,0.029564
2021/12/04 00:22:00.000,n,108,1.44,1.08,1.8,22.9,80.2,1014.92,0,0,0,0,0.026093
2021/12/04 00:23:00.000,n,151,2.16,1.8,2.16,22.9,80.3,1014.92,0,0,0,0,0.02697
2021/12/04 00:24:00.000,n,133,1.44,1.44,1.44,22.9,80.5,1014.82,0,0,0,0,0.02697
2021/12/04 00:25:00.010,n,158,1.8,1.8,2.16,22.9,80.6,1014.82,0,0,0,0,0.028687
2021/12/04 00:26:00.007,n,167,2.16,1.8,2.16,22.8,80.6,1014.82,0,0,0,0,0.027809
2021/12/04 00:27:00.005,n,158,1.44,1.08,1.8,22.8,80.7,1014.82,0,0,0,0,0.027809
2021/12/04 00:28:00.000,n,192,1.8,1.8,2.16,22.8,80.7,1014.82,0,0,0,0,0.027809
2021/12/04 00:29:00.000,n,176,2.16,1.8,2.52,22.8,80.7,1014.82,0,0,0,0,0.02697
2021/12/04 00:30:00.000,n,166,2.88,2.88,3.24,22.7,80.7,1014.82,0,0,0,0,0.021744
2021/12/04 00:31:00.000,n,173,3.24,2.88,3.6,22.7,80.8,1014.82,0,0,0,0,0.026093
2021/12/04 00:32:00.006,n,160,2.88,2.52,3.6,22.7,80.8,1014.82,0,0,0,0,0.025215
2021/12/04 00:33:00.003,n,159,3.24,2.88,3.24,22.7,80.8,1014.82,0,0,0,0,0.026093
2021/12/04 00:34:00.001,n,144,3.24,2.88,3.24,22.7,80.8,1014.72,0,0,0,0,0.027809
2021/12/04 00:35:00.014,n,133,1.44,0.72,2.16,22.7,80.8,1014.72,0,0,0,0,0.022583
2021/12/04 00:36:00.011,n,156,1.08,0.36,2.52,22.7,80.9,1014.72,0,0,0,0,0.026093
2021/12/04 00:37:00.000,n,160,2.88,2.52,2.88,22.7,80.9,1014.72,0,0,0,0,0.026093
2021/12/04 00:38:00.000,n,146,1.8,1.44,2.16,22.7,81,1014.72,0,0,0,0,0.024376
2021/12/04 00:39:00.002,n,160,1.8,1.44,2.16,22.7,81.1,1014.72,0,0,0,0,0.025215
2021/12/04 00:40:00.001,n,158,1.08,0.36,1.44,22.7,81.2,1014.62,0,0,0,0,0.024376
2021/12/04 00:41:00.000,n,173,1.44,1.08,2.16,22.7,81.3,1014.62,0,0,0,0,0.027809
2021/12/04 00:42:00.000,n,176,2.16,1.8,2.88,22.7,81.3,1014.62,0,0,0,0,0.02346
2021/12/04 00:43:00.010,n,185,2.16,1.8,2.52,22.7,81.2,1014.72,0,0,0,0,0.026093
2021/12/04 00:44:00.007,n,176,3.24,2.88,3.24,22.7,81.1,1014.72,0,0,0,0,0.02346
2021/12/04 00:45:00.004,n,186,3.96,3.96,4.32,22.7,81,1014.72,0,0,0,0,0.019989
2021/12/04 00:46:00.001,n,173,4.32,3.96,4.32,22.7,81,1014.62,0,0,0,0,0.022583
2021/12/04 00:47:00.000,n,165,3.6,3.24,3.96,22.7,81,1014.62,0,0,0,0,0.024376
2021/12/04 00:48:00.002,n,196,3.6,3.24,4.32,22.7,81.1,1014.62,0,0,0,0,0.02346
2021/12/04 00:49:00.000,n,162,3.6,2.52,6.84,22.7,81,1014.62,0,0,0,0,0.022583
2021/12/04 00:50:00.000,n,168,2.88,2.52,3.24,22.6,81,1014.62,0,0,0,0,0.025215
2021/12/04 00:51:00.010,n,148,3.24,2.88,3.6,22.6,81.1,1014.62,0,0,0,0,0.02346
2021/12/04 00:52:00.007,n,158,3.96,3.6,4.32,22.6,81.2,1014.62,0,0,0,0,0.021744
2021/12/04 00:53:00.004,n,144,3.6,3.6,3.96,22.6,81.4,1014.62,0,0,0,0,0.021744
2021/12/04 00:54:00.001,n,166,2.88,2.88,3.24,22.5,81.4,1014.52,0,0,0,0,0.026093
2021/12/04 00:55:00.000,n,151,2.52,2.16,2.88,22.5,81.5,1014.52,0,0,0,0,0.021744
2021/12/04 00:56:00.000,n,159,1.8,1.8,1.8,22.5,81.6,1014.52,0,0,0,0,0.021744
2021/12/04 00:57:00.000,n,170,1.08,0.72,1.8,22.5,81.8,1014.52,0,0,0,0,0.022583
2021/12/04 00:58:00.000,n,216,1.08,0.36,1.8,22.5,82,1014.52,0,0,0,0,0.019989
2021/12/04 00:59:00.002,n,179,1.08,0.72,1.44,22.5,82.1,1014.52,0,0,0,0,0.022583
2021/12/04 01:00:00.000,n,144,2.16,1.8,2.52,22.5,82.3,1014.42,0,0,0,0,0.022583
2021/12/04 01:01:00.000,n,174,2.52,2.16,2.52,22.5,82.3,1014.42,0,0,0,0,0.020866
2021/12/04 01:02:00.011,n,166,2.52,2.16,2.52,22.5,82.3,1014.42,0,0,0,0,0.01915
2021/12/04 01:03:00.008,n,138,1.8,1.44,1.8,22.4,82.4,1014.42,0,0,0,0,0.01915
2021/12/04 01:04:00.000,n,170,1.8,1.08,2.16,22.4,82.5,1014.32,0,0,0,0,0.020866
2021/12/04 01:05:00.001,n,307,0.72,0.36,1.08,22.4,82.5,1014.32,0,0,0,0,0.017395
2021/12/04 01:06:00.000,n,6,0.36,0.36,0.72,22.4,82.5,1014.32,0,0,0,0,0.022621
2021/12/04 01:07:00.000,n,272,1.44,0.72,1.8,22.4,82.6,1014.32,0,0,0,0,0.027847
2021/12/04 01:08:00.007,n,267,1.44,1.08,1.8,22.4,82.6,1014.32,0,0,0,0,0.028687
2021/12/04 01:09:00.004,n,291,1.44,0.72,1.44,22.4,82.6,1014.32,0,0,0,0,0.028687
2021/12/04 01:10:00.001,n,268,0.72,0.72,1.08,22.4,82.5,1014.22,0,0,0,0,0.027847
2021/12/04 01:11:00.000,n,329,0.72,0.72,1.08,22.4,82.4,1014.22,0,0,0,0,0.030441
2021/12/04 01:12:00.012,n,295,0.72,0.72,1.08,22.4,82.4,1014.22,0,0,0,0,0.02697
2021/12/04 01:13:00.000,n,53,0.72,0.36,1.08,22.3,82.5,1014.22,0,0,0,0,0.029602
2021/12/04 01:14:00.000,n,305,1.08,0.72,1.08,22.3,82.5,1014.12,0,0,0,0,0.026093
2021/12/04 01:15:00.003,n,316,0.72,0,1.08,22.3,82.6,1014.12,0,0,0,0,0.02697
2021/12/04 01:16:00.000,n,312,0.72,0.36,1.08,22.3,82.6,1014.12,0,0,0,0,0.029602
2021/12/04 01:17:00.000,n,252,0.72,0.36,1.08,22.3,82.7,1014.12,0,0,0,0,0.028687
2021/12/04 01:18:00.000,n,148,0.36,0,0.72,22.3,82.7,1014.12,0,0,0,0,0.02697
2021/12/04 01:19:00.008,n,149,1.44,1.08,1.8,22.4,82.5,1014.12,0,0,0,0,0.02697
2021/12/04 01:20:00.007,n,159,2.52,2.16,2.52,22.3,82.5,1014.22,0,0,0,0,0.025253
2021/12/04 01:21:00.004,n,170,3.6,3.24,3.96,22.3,82.5,1014.22,0,0,0,0,0.025253
2021/12/04 01:22:00.001,n,181,5.04,5.04,5.76,22.3,82.5,1014.12,0,0,0,0,0.023499
2021/12/04 01:23:00.000,n,192,4.32,3.96,4.68,22.3,82.6,1014.22,0,0,0,0,0.024376
2021/12/04 01:24:00.000,n,188,2.16,1.44,2.88,22.3,82.6,1014.12,0,0,0,0,0.026093
2021/12/04 01:25:00.000,n,179,3.24,2.52,3.96,22.3,82.5,1014.22,0,0,0,0,0.02697
2021/12/04 01:26:00.006,n,151,1.08,0.72,1.44,22.3,82.4,1014.22,0,0,0,0,0.023499
2021/12/04 01:27:00.003,n,300,0.72,0,0.72,22.3,82.4,1014.12,0,0,0,0,0.025253
2021/12/04 01:28:00.000,n,193,3.96,3.96,4.32,22.3,82.4,1014.12,0,0,0,0,0.024376
2021/12/04 01:29:00.013,n,165,4.32,2.52,7.56,22.3,82.4,1014.12,0,0,0,0,0.021744
2021/12/04 01:30:00.010,n,271,1.44,1.08,1.44,22.3,82.3,1014.12,0,0,0,0,0.024376
2021/12/04 01:31:00.000,n,255,1.44,1.08,1.8,22.3,82.4,1014.12,0,0,0,0,0.026093
2021/12/04 01:32:00.000,n,247,2.52,2.16,2.88,22.3,82.4,1014.12,0,0,0,0,0.024376
2021/12/04 01:33:00.003,n,265,1.8,1.44,2.16,22.3,82.4,1014.12,0,0,0,0,0.024376
2021/12/04 01:34:00.000,n,249,2.52,1.8,2.52,22.2,82.4,1014.12,0,0,0,0,0.024376
2021/12/04 01:35:00.000,n,277,2.52,1.8,2.52,22.3,82.4,1014.12,0,0,0,0,0.020027
2021/12/04 01:36:00.010,n,279,2.16,1.8,2.52,22.2,82.4,1014.12,0,0,0,0,0.023499
2021/12/04 01:37:00.007,n,257,0.72,0.36,0.72,22.2,82.5,1014.12,0,0,0,0,0.020866
2021/12/04 01:38:00.004,n,303,1.08,0.36,1.44,22.2,82.7,1014.12,0,0,0,0,0.017395
2021/12/04 01:39:00.003,n,10,0.72,0.36,0.72,22.3,82.7,1014.12,0,0,0,0,0.022621
2021/12/04 01:40:00.000,n,184,0.72,0,1.44,22.3,82.7,1014.12,0,0,0,0,0.020866
2021/12/04 01:41:00.000,n,34,0.72,0.36,1.08,22.3,82.5,1014.02,0,0,0,0,0.021744
2021/12/04 01:42:00.000,n,160,0.72,0,1.08,22.3,82.5,1014.02,0,0,0,0,0.016518
2021/12/04 01:43:00.000,n,203,0.72,0.72,0.72,22.3,82.5,1014.02,0,0,0,0,0.020027
2021/12/04 01:44:00.006,n,110,1.44,1.08,2.16,22.2,82.5,1014.02,0,0,0,0,0.017395
2021/12/04 01:45:00.003,n,0,1.08,0.36,1.44,22.2,82.5,1014.02,0,0,0,0,0.01915
2021/12/04 01:46:00.000,n,49,0.72,0.36,0.72,22.2,82.6,1014.02,0,0,0,0,0.020866
2021/12/04 01:47:00.000,n,34,1.44,1.08,1.8,22.2,82.5,1014.02,0,0,0,0,0.021744
2021/12/04 01:48:00.011,n,62,1.8,1.44,1.8,22.2,82.7,1014.02,0,0,0,0,0.024376
2021/12/04 01:49:00.000,n,55,1.8,1.44,2.16,22.2,82.7,1013.92,0,0,0,0,0.030479
2021/12/04 01:50:00.000,n,64,1.8,1.44,1.8,22.2,82.8,1013.92,0,0,0,0,0.027847
2021/12/04 01:51:00.001,n,181,0.36,0.36,0.72,22.2,82.8,1013.92,0,0,0,0,0.026131
2021/12/04 01:52:00.000,n,63,0.36,0.36,0.72,22.2,82.7,1013.92,0,0,0,0,0.029602
2021/12/04 01:53:00.000,n,85,1.08,0.36,1.08,22.2,82.7,1013.92,0,0,0,0,0.029602
2021/12/04 01:54:00.009,n,76,1.44,1.08,1.44,22.2,82.7,1013.92,0,0,0,0,0.023499
2021/12/04 01:55:00.008,n,261,0.36,0.36,0.72,22.2,82.7,1013.92,0,0,0,0,0.029602
2021/12/04 01:56:00.005,n,247,0.72,0.36,0.72,22.2,82.7,1013.82,0,0,0,0,0.027847
2021/12/04 01:57:00.003,n,250,0.72,0.36,0.72,22.1,82.7,1013.82,0,0,0,0,0.026131
2021/12/04 01:58:00.000,n,204,1.8,1.08,2.16,22.1,82.8,1013.82,0,0,0,0,0.029602
2021/12/04 01:59:00.000,n,254,1.8,1.44,2.16,22.1,82.8,1013.82,0,0,0,0,0.026131
2021/12/04 02:00:00.000,n,266,3.24,2.88,3.96,22.1,82.9,1013.92,0,0,0,0,0.02697
2021/12/04 02:01:00.000,n,260,3.24,3.24,3.6,22.1,83,1013.82,0,0,0,0,0.023499
2021/12/04 02:02:00.004,n,253,2.88,2.88,3.24,22.1,83,1013.82,0,0,0,0,0.028725
2021/12/04 02:03:00.001,n,248,2.52,1.8,2.52,22.1,83.1,1013.82,0,0,0,0,0.025253
2021/12/04 02:04:00.000,n,261,2.16,1.44,2.52,22.1,83.1,1013.82,0,0,0,0,0.024376
2021/12/04 02:05:00.011,n,262,2.52,2.16,2.88,22.1,83.1,1013.82,0,0,0,0,0.025253
2021/12/04 02:06:00.008,n,275,2.52,2.16,2.88,22,83.1,1013.82,0,0,0,0,0.022621
2021/12/04 02:07:00.000,n,271,2.52,2.52,3.24,22,83.1,1013.82,0,0,0,0,0.02697
2021/12/04 02:08:00.001,n,262,2.16,2.16,2.16,22,83.2,1013.82,0,0,0,0,0.024376
2021/12/04 02:09:00.000,n,252,3.24,3.24,3.6,22,83.2,1013.82,0,0,0,0,0.026131
2021/12/04 02:10:00.000,n,249,3.24,2.52,3.6,22,83.2,1013.82,0,0,0,0,0.023499
2021/12/04 02:11:00.000,n,262,3.6,3.24,3.6,22,83.2,1013.82,0,0,0,0,0.023499
2021/12/04 02:12:00.006,n,246,3.24,1.8,3.96,22,83.3,1013.82,0,0,0,0,0.021744
2021/12/04 02:13:00.004,n,249,2.52,2.52,2.88,22,83.3,1013.82,0,0,0,0,0.024376
2021/12/04 02:14:00.001,n,262,2.16,1.8,2.88,22,83.3,1013.82,0,0,0,0,0.023499
2021/12/04 02:15:00.015,n,246,2.52,2.16,2.52,21.9,83.3,1013.92,0,0,0,0,0.022621
2021/12/04 02:16:00.000,n,245,2.16,1.8,2.16,21.9,83.4,1013.92,0,0,0,0,0.020905
2021/12/04 02:17:00.000,n,243,2.52,2.52,2.88,21.9,83.4,1013.92,0,0,0,0,0.020905
2021/12/04 02:18:00.000,n,232,2.16,1.8,2.52,21.9,83.4,1013.92,0,0,0,0,0.022621
2021/12/04 02:19:00.004,n,211,2.88,2.16,5.4,21.9,83.4,1013.92,0,0,0,0,0.020027
2021/12/04 02:20:00.001,n,208,2.52,2.16,2.52,21.9,83.4,1013.92,0,0,0,0,0.017395
2021/12/04 02:21:00.000,n,232,2.16,1.8,2.16,21.9,83.4,1013.92,0,0,0,0,0.020905
2021/12/04 02:22:00.011,n,200,0.72,0.72,1.08,21.9,83.5,1013.92,0,0,0,0,0.017395
2021/12/04 02:23:00.008,n,271,2.16,1.44,2.52,21.9,83.5,1013.92,0,0,0,0,0.017395
2021/12/04 02:24:00.005,n,263,1.44,1.44,2.16,21.9,83.5,1014.02,0,0,0,0,0.023499
2021/12/04 02:25:00.000,n,250,1.08,0.72,1.44,21.9,83.6,1014.02,0,0,0,0,0.029564
2021/12/04 02:26:00.000,n,11,0.72,0.36,1.08,21.9,83.7,1014.02,0,0,0,0,0.030441
2021/12/04 02:27:00.000,n,238,1.08,0.36,2.16,21.9,83.7,1013.92,0,0,0,0,0.027847
2021/12/04 02:28:00.000,n,254,0.36,0.36,0.72,21.8,83.7,1013.92,0,0,0,0,0.025215
2021/12/04 02:29:00.005,n,208,1.44,1.08,2.16,21.8,83.7,1013.92,0,0,0,0,0.025215
2021/12/04 02:30:00.002,n,142,0.72,0.36,1.08,21.8,83.7,1013.92,0,0,0,0,0.026093
2021/12/04 02:31:00.000,n,19,1.08,0.72,1.08,21.8,83.7,1013.92,0,0,0,0,0.024376
2021/12/04 02:32:00.014,n,150,0.72,0.36,1.08,21.8,83.9,1013.92,0,0,0,0,0.025215
2021/12/04 02:33:00.011,n,306,1.08,1.08,1.08,21.8,83.8,1013.92,0,0,0,0,0.02697
2021/12/04 02:34:00.000,n,225,1.44,0.72,2.16,21.8,83.8,1013.92,0,0,0,0,0.02697
2021/12/04 02:35:00.000,n,98,0.72,0.36,1.08,21.8,83.8,1013.92,0,0,0,0,0.023499
2021/12/04 02:36:00.002,n,224,0.72,0.36,0.72,21.8,83.8,1013.92,0,0,0,0,0.025215
2021/12/04 02:37:00.000,n,206,0.36,0.36,0.36,21.8,83.7,1013.92,0,0,0,0,0.026093
2021/12/04 02:38:00.000,n,120,0.72,0.72,1.08,21.8,83.8,1013.92,0,0,0,0,0.024376
2021/12/04 02:39:00.000,n,203,0.72,0.36,1.8,21.8,83.9,1013.92,0,0,0,0,0.022621
2021/12/04 02:40:00.007,n,213,1.08,0.36,1.8,21.9,83.9,1013.92,0,0,0,0,0.024376
2021/12/04 02:41:00.005,n,247,1.08,1.08,1.44,21.9,83.8,1013.92,0,0,0,0,0.025215
2021/12/04 02:42:00.002,n,265,1.44,1.08,1.44,21.9,83.8,1013.82,0,0,0,0,0.025215
2021/12/04 02:43:00.000,n,225,1.44,1.08,2.16,21.8,83.8,1013.82,0,0,0,0,0.026093
2021/12/04 02:44:00.000,n,239,1.8,1.44,2.16,21.8,83.8,1013.82,0,0,0,0,0.023499
2021/12/04 02:45:00.000,n,292,0.36,0,1.08,21.8,83.8,1013.82,0,0,0,0,0.024376
2021/12/04 02:46:00.006,n,239,1.44,1.08,1.8,21.8,83.8,1013.82,0,0,0,0,0.023499
2021/12/04 02:47:00.004,n,237,2.52,2.16,2.52,21.8,83.8,1013.82,0,0,0,0,0.023499
2021/12/04 02:48:00.000,n,194,1.8,1.44,2.16,21.8,83.8,1013.82,0,0,0,0,0.02697
2021/12/04 02:49:00.000,n,214,2.52,2.16,5.4,21.8,83.9,1013.82,0,0,0,0,0.021744
2021/12/04 02:50:00.010,n,267,2.88,2.52,2.88,21.8,83.9,1013.82,0,0,0,0,0.023499
2021/12/04 02:51:00.008,n,246,1.8,1.8,2.16,21.8,83.9,1013.72,0,0,0,0,0.023499
2021/12/04 02:52:00.000,n,217,1.08,0.72,1.44,21.8,83.9,1013.72,0,0,0,0,0.01915
2021/12/04 02:53:00.001,n,125,0.72,0.72,1.8,21.8,84,1013.72,0,0,0,0,0.019989
2021/12/04 02:54:00.000,n,114,1.08,0.36,1.8,21.8,84,1013.72,0,0,0,0,0.021744
2021/12/04 02:55:00.000,n,187,1.44,1.08,1.8,21.8,84,1013.72,0,0,0,0,0.021744
2021/12/04 02:56:00.009,n,164,2.16,1.8,2.52,21.8,83.8,1013.72,0,0,0,0,0.022621
2021/12/04 02:57:00.006,n,140,1.44,0.72,2.52,21.8,83.9,1013.72,0,0,0,0,0.01915
2021/12/04 02:58:00.004,n,203,1.8,1.8,2.16,21.8,84,1013.72,0,0,0,0,0.023499
2021/12/04 02:59:00.001,n,189,1.8,1.44,2.88,21.8,84,1013.72,0,0,0,0,0.022621
2021/12/04 03:00:00.014,n,172,2.88,2.52,3.24,21.8,84,1013.72,0,0,0,0,0.01915
2021/12/04 03:01:00.000,n,188,2.88,2.52,3.24,21.8,84.2,1013.72,0,0,0,0,0.019989
2021/12/04 03:02:00.000,n,175,1.8,1.44,2.88,21.8,84.2,1013.72,0,0,0,0,0.021744
2021/12/04 03:03:00.000,n,159,2.16,0.72,7.92,21.8,84.3,1013.72,0,0,0,0,0.01915
2021/12/04 03:04:00.004,n,174,2.52,2.52,2.88,21.8,84.3,1013.72,0,0,0,0,0.021744
2021/12/04 03:05:00.001,n,171,2.88,2.52,3.24,21.8,84.3,1013.72,0,0,0,0,0.020866
2021/12/04 03:06:00.000,n,158,1.8,1.08,6.84,21.7,84.3,1013.72,0,0,0,0,0.01915
2021/12/04 03:07:00.011,n,150,1.8,1.44,2.16,21.7,84.4,1013.72,0,0,0,0,0.020866
2021/12/04 03:08:00.008,n,151,1.44,0.72,2.88,21.7,84.5,1013.72,0,0,0,0,0.018272
2021/12/04 03:09:00.005,n,153,9,4.32,9.72,21.7,84.6,1013.72,0,0,0,0,0.01915
2021/12/04 03:10:00.000,n,152,4.32,2.52,8.64,21.6,84.7,1013.72,0,0,0,0,0.020866
2021/12/04 03:11:00.000,n,155,8.64,4.32,9.72,21.6,84.7,1013.72,0,0,0,0,0.019989
2021/12/04 03:12:00.000,n,154,7.2,4.68,10.08,21.6,84.9,1013.72,0,0,0,0,0.024376
2021/12/04 03:13:00.000,n,154,5.76,3.96,10.08,21.6,84.9,1013.72,0,0,0,0,0.016518
2021/12/04 03:14:00.000,n,163,3.96,3.6,8.64,21.6,85.1,1013.62,0,0,0,0,0.017395
2021/12/04 03:15:00.005,n,157,4.32,2.52,9.36,21.6,85.1,1013.62,0,0,0,0,0.016518
2021/12/04 03:16:00.003,n,159,9,5.04,10.440002,21.5,85.2,1013.62,0,0,0,0,0.022621
2021/12/04 03:17:00.000,n,155,8.64,4.68,10.08,21.5,85.2,1013.62,0,0,0,0,0.018272
2021/12/04 03:18:00.014,n,173,4.68,3.24,9,21.5,85.3,1013.62,0,0,0,0,0.024338
2021/12/04 03:19:00.000,n,171,5.4,3.24,8.28,21.5,85.3,1013.62,0,0,0,0,0.029564
2021/12/04 03:20:00.000,n,171,2.88,2.52,7.56,21.4,85.3,1013.62,0,0,0,0,0.030441
2021/12/04 03:21:00.000,n,182,2.52,1.8,2.88,21.4,85.4,1013.62,0,0,0,0,0.025215
2021/12/04 03:22:00.000,n,194,2.16,1.8,2.52,21.4,85.4,1013.62,0,0,0,0,0.026093
2021/12/04 03:23:00.000,n,167,3.96,2.88,7.92,21.4,85.5,1013.62,0,0,0,0,0.029564
2021/12/04 03:24:00.008,n,160,2.16,1.8,2.52,21.4,85.5,1013.62,0,0,0,0,0.024338
2021/12/04 03:25:00.007,n,190,3.24,2.52,7.2,21.4,85.4,1013.72,0,0,0,0,0.026093
2021/12/04 03:26:00.004,n,179,2.16,1.44,2.16,21.4,85.5,1013.62,0,0,0,0,0.029564
2021/12/04 03:27:00.001,n,273,1.08,0,2.16,21.4,85.5,1013.62,0,0,0,0,0.025215
2021/12/04 03:28:00.000,n,137,1.08,0.36,2.52,21.4,85.5,1013.62,0,0,0,0,0.024338
2021/12/04 03:29:00.000,n,200,1.8,0.72,2.16,21.4,85.5,1013.62,0,0,0,0,0.023499
2021/12/04 03:30:00.000,n,317,0.72,0.36,1.08,21.4,85.5,1013.62,0,0,0,0,0.026093
2021/12/04 03:31:00.006,n,157,4.32,2.88,7.92,21.4,85.4,1013.62,0,0,0,0,0.024338
2021/12/04 03:32:00.003,n,151,2.88,2.16,7.2,21.4,85.4,1013.62,0,0,0,0,0.024338
2021/12/04 03:33:00.001,n,154,8.28,5.04,10.8,21.3,85.2,1013.62,0,0,0,0,0.028725
2021/12/04 03:34:00.000,n,156,7.2,3.96,9,21.3,85.3,1013.62,0,0,0,0,0.023499
2021/12/04 03:35:00.012,n,171,4.32,3.6,5.04,21.3,85.3,1013.62,0,0,0,0,0.023499
2021/12/04 03:36:00.009,n,178,3.24,2.52,8.64,21.3,85.3,1013.62,0,0,0,0,0.024338
2021/12/04 03:37:00.000,n,151,3.24,2.88,3.6,21.2,85.3,1013.62,0,0,0,0,0.020866
2021/12/04 03:38:00.003,n,158,7.92,4.32,9.72,21.2,85.4,1013.62,0,0,0,0,0.023499
2021/12/04 03:39:00.000,n,169,7.2,4.68,11.16,21.2,85.5,1013.62,0,0,0,0,0.023499
2021/12/04 03:40:00.000,n,166,5.04,2.52,8.28,21.2,85.5,1013.62,0,0,0,0,0.024376
2021/12/04 03:41:00.007,n,158,7.56,3.96,9.36,21.2,85.5,1013.62,0,0,0,0,0.029602
2021/12/04 03:42:00.005,n,158,5.04,2.88,9.72,21.2,85.6,1013.62,0,0,0,0,0.033112
2021/12/04 03:43:00.002,n,168,8.28,5.04,10.08,21.2,85.6,1013.62,0,0,0,0,0.032234
2021/12/04 03:44:00.000,n,171,7.92,5.04,10.8,21.2,85.6,1013.72,0,0,0,0,0.030479
2021/12/04 03:45:00.014,n,207,2.52,2.16,4.32,21.2,85.7,1013.72,0,0,0,0,0.031319
2021/12/04 03:46:00.000,n,221,1.44,1.08,1.8,21.2,85.7,1013.72,0,0,0,0,0.031319
2021/12/04 03:47:00.000,n,169,4.68,2.88,7.92,21.2,85.7,1013.72,0,0,0,0,0.029602
2021/12/04 03:48:00.000,n,166,2.16,1.44,2.16,21.1,85.6,1013.72,0,0,0,0,0.028725
2021/12/04 03:49:00.004,n,244,2.16,1.44,2.52,21.1,85.6,1013.82,0,0,0,0,0.026131
2021/12/04 03:50:00.001,n,194,0.36,0.36,1.08,21.1,85.6,1013.82,0,0,0,0,0.028725
2021/12/04 03:51:00.000,n,132,0.72,0.36,1.08,21.1,85.7,1013.82,0,0,0,0,0.023537
2021/12/04 03:52:00.011,n,250,1.08,0.72,1.44,21.2,85.8,1013.82,0,0,0,0,0.026131
2021/12/04 03:53:00.010,n,235,3.24,2.52,3.24,21.2,85.7,1013.82,0,0,0,0,0.025253
2021/12/04 03:54:00.006,n,241,1.44,0.72,5.04,21.1,85.8,1013.82,0,0,0,0,0.027008
2021/12/04 03:55:00.000,n,224,2.16,1.44,2.88,21.2,85.7,1013.72,0,0,0,0,0.027008
2021/12/04 03:56:00.000,n,226,1.44,0.72,1.8,21.1,85.7,1013.72,0,0,0,0,0.023537
2021/12/04 03:57:00.000,n,239,1.44,0.72,1.44,21.1,85.7,1013.72,0,0,0,0,0.027008
2021/12/04 03:58:00.000,n,209,1.8,1.44,3.96,21.1,85.7,1013.72,0,0,0,0,0.025253
2021/12/04 03:59:00.006,n,114,0.36,0,0.72,21.1,85.7,1013.72,0,0,0,0,0.027008
2021/12/04 04:00:00.003,n,171,2.52,1.44,3.6,21.1,85.7,1013.72,0,0,0,0,0.023537
2021/12/04 04:01:00.000,n,177,1.44,1.08,6.12,21.1,85.6,1013.82,0,0,0,0,0.022659
2021/12/04 04:02:00.015,n,215,2.52,2.16,5.4,21.1,85.6,1013.82,0,0,0,0,0.027885
2021/12/04 04:03:00.011,n,190,3.6,2.16,7.56,21.1,85.6,1013.82,0,0,0,0,0.027008
2021/12/04 04:04:00.000,n,164,8.64,4.32,10.440002,21.1,85.6,1013.82,0,0,0,0,0.027008
2021/12/04 04:05:00.000,n,164,2.88,1.8,7.56,21.1,85.6,1013.82,0,0,0,0,0.024376
2021/12/04 04:06:00.002,n,252,1.44,0.72,1.8,21.1,85.6,1013.82,0,0,0,0,0.027008
2021/12/04 04:07:00.000,n,271,1.08,0.72,1.44,21.1,85.6,1013.82,0,0,0,0,0.025253
2021/12/04 04:08:00.000,n,296,1.44,1.08,2.16,21.1,85.6,1013.82,0,0,0,0,0.027885
2021/12/04 04:09:00.009,n,245,0.72,0.72,1.08,21.1,85.8,1013.92,0,0,0,0,0.026131
2021/12/04 04:10:00.006,n,233,0.36,0.36,0.72,21.1,85.7,1013.92,0,0,0,0,0.028725
2021/12/04 04:11:00.003,n,280,2.16,1.08,3.24,21.1,85.7,1013.92,0,0,0,0,0.032234
2021/12/04 04:12:00.000,n,230,3.24,1.8,3.96,21.1,85.7,1013.92,0,0,0,0,0.028725
2021/12/04 04:13:00.000,n,254,3.24,2.88,3.24,21.1,85.7,1013.92,0,0,0,0,0.033951
2021/12/04 04:14:00.000,n,244,2.88,2.52,3.24,21.1,85.7,1013.92,0,0,0,0,0.039177
2021/12/04 04:15:00.000,n,272,5.76,5.4,6.12,21.1,85.6,1013.92,0,0,0,0,0.041771
2021/12/04 04:16:00.005,n,282,2.16,1.44,2.52,21.1,85.5,1013.92,0,0,0,0,0.04612
2021/12/04 04:17:00.002,n,282,1.8,0.72,2.88,21.1,85.5,1013.92,0,0,0,0,0.053101
2021/12/04 04:18:00.000,n,269,4.68,3.6,5.04,21,85.5,1013.92,0,0,0,0,0.061798
2021/12/04 04:19:00.000,n,262,2.52,2.16,2.88,21,85.5,1013.92,0,0,0,0,0.07225
2021/12/04 04:20:00.009,n,267,3.6,3.24,4.32,21,85.5,1013.92,0,0,0,0,0.085297
2021/12/04 04:21:00.006,n,261,5.76,5.4,6.12,21,85.6,1013.92,0,0,0,0,0.085297
2021/12/04 04:22:00.000,n,262,6.84,6.48,7.2,21,85.6,1013.92,0,0,0,0,0.108795
2021/12/04 04:23:00.000,n,247,5.76,5.76,6.12,21,85.6,1013.92,0,0,0,0,0.160103
2021/12/04 04:24:00.000,n,228,2.88,2.16,3.24,21,85.6,1013.92,0,0,0,0,0.194893
2021/12/04 04:25:00.000,n,229,1.8,1.44,2.16,21,85.6,1013.92,0,0,0,0,0.243568
2021/12/04 04:26:00.007,n,274,2.88,1.8,3.6,21,85.6,1014.02,0,0,0,0,0.214005
2021/12/04 04:27:00.005,n,264,3.24,2.16,3.6,21,85.6,1014.02,0,0,0,0,0.287895
2021/12/04 04:28:00.001,n,284,2.52,2.16,3.24,20.9,85.6,1014.02,0,0,0,0,0.461617
2021/12/04 04:29:00.013,n,260,2.52,2.52,2.88,20.9,85.6,1014.02,0,0,0,0,0.558815
2021/12/04 04:30:00.011,n,227,2.88,2.88,3.24,20.9,85.7,1014.02,0,0,0,0,0.667076
2021/12/04 04:31:00.000,n,262,4.32,3.6,5.04,20.9,85.8,1013.92,0,0,0,0,0.788078
2021/12/04 04:32:00.000,n,259,2.16,0.72,2.88,20.9,85.9,1013.92,0,0,0,0,0.923767
2021/12/04 04:33:00.002,n,261,2.88,2.16,2.88,20.9,85.8,1013.92,0,0,0,0,1.081047
2021/12/04 04:34:00.000,n,289,1.44,1.08,1.8,20.9,85.7,1013.92,0,0,0,0,1.253853
2021/12/04 04:35:00.000,n,250,1.08,0.36,1.44,20.9,85.8,1013.92,0,0,0,0,1.448975
2021/12/04 04:36:00.010,n,201,2.52,1.8,2.88,20.9,86,1013.92,0,0,0,0,1.662064
2021/12/04 04:37:00.008,n,214,2.52,2.16,3.96,20.9,85.9,1013.92,0,0,0,0,1.896515
2021/12/04 04:38:00.005,n,203,1.8,1.8,2.16,20.9,86,1013.92,0,0,0,0,2.157326
2021/12/04 04:39:00.002,n,250,2.16,1.08,2.88,20.9,86,1013.92,0,0,0,0,2.440529
2021/12/04 04:40:00.000,n,267,2.52,2.16,2.52,20.9,85.9,1013.92,0,0,0,0,2.751808
2021/12/04 04:41:00.000,n,306,2.88,2.52,2.88,20.9,85.9,1013.92,0,0,0,0,3.100433
2021/12/04 04:42:00.000,n,265,3.96,3.6,4.68,20.9,85.9,1013.92,0,0,0,0,3.490715
2021/12/04 04:43:00.000,n,261,3.24,2.88,3.6,20.9,85.9,1013.92,0,0,0,0,3.892746
2021/12/04 04:44:00.005,n,251,3.24,3.24,3.24,20.9,86,1013.92,0,0,0,0,4.311028
2021/12/04 04:45:00.003,n,236,2.88,2.52,3.6,20.9,85.9,1013.92,0,0,0,0,4.736023
2021/12/04 04:46:00.000,n,274,1.8,0.36,2.88,20.9,85.9,1013.92,0,0,0,0,5.180779
2021/12/04 04:47:00.014,n,135,0.72,0,1.44,20.9,86.2,1013.92,0,0,0,0,5.654221
2021/12/04 04:48:00.011,n,316,2.16,1.8,2.52,20.9,86.2,1013.92,0,0,0,0,6.150246
2021/12/04 04:49:00.000,n,19,1.44,1.08,2.16,20.9,86.4,1013.92,0,0,0,0,6.693993
2021/12/04 04:50:00.000,n,42,0.72,0.36,1.8,21,86.3,1013.92,0,0,0,0,7.293892
2021/12/04 04:51:00.004,n,176,1.44,1.08,1.8,21,86.1,1013.92,0,0,0,0,7.9842
2021/12/04 04:52:00.001,n,257,2.16,1.8,2.52,21,86,1013.92,0,0,0,0,8.722116
2021/12/04 04:53:00.000,n,243,1.8,1.44,2.16,20.9,86,1013.92,0,0,0,0,9.61647
2021/12/04 04:54:00.000,n,236,2.16,1.8,2.52,20.9,85.9,1013.92,0,0,0,0,12.131538
2021/12/04 04:55:00.007,n,252,3.96,3.24,3.96,20.9,85.9,1013.92,0,0,0,0,15.787888